Simultaneous Nadir Overpasses (SNOs) Predictions

Prediction of SNOs between GOES-16 and TERRA Satellite Orbit:

Table of predicted SNOs for the next 14.0 days since TLE Epoch: 3/14/2025
Index Date Time (GOES-16) GOES-16 Lat,Lon TERRA Lat,Lon Distance(km) Time Diff (sec)
1 03/15/2025 02:19:33 -0.06, -75.30 0.44, -73.01 260.19 80
2 03/15/2025 14:39:06 0.06, -75.34 0.55, -77.77 275.76 80
3 03/17/2025 14:20:17 0.06, -75.38 -0.39, -73.24 243.39 80
4 03/18/2025 02:42:38 -0.06, -75.36 -0.62, -78.03 303.43 80
5 03/20/2025 02:21:09 -0.05, -75.40 0.37, -73.50 216.07 80
6 03/20/2025 14:40:42 0.06, -75.44 0.65, -78.25 319.79 80
7 03/22/2025 14:24:32 0.05, -75.48 -0.33, -73.72 200.50 80
8 03/23/2025 02:44:13 -0.05, -75.46 -0.66, -78.51 345.83 80
9 03/25/2025 02:22:42 -0.05, -75.51 0.29, -73.97 175.17 80
10 03/25/2025 14:42:15 0.05, -75.55 0.69, -78.73 360.50 80
11 03/27/2025 14:26:03 0.05, -75.60 -0.26, -74.18 161.96 80
12 03/28/2025 02:45:42 -0.05, -75.59 -0.78, -78.96 383.57 80
